This is the latest recevied weather packets stored in our database for station/object N1ORT. If no packets are shown the sender has not sent any weather packets the latest 10 day(s).
| Time | Temp. | Humidity | Pressure | Rain* | Wind** | Luminosity | Snow |
|---|---|---|---|---|---|---|---|
| 1777640701 | 10° C | 66% | 1007.8 hPa | 0 mm | - | 593 W/m² | - |
| 1777640397 | 10° C | 68% | 1007.8 hPa | 0 mm | - | 573 W/m² | - |
| 1777640095 | 10° C | 68% | 1007.9 hPa | 0 mm | - | 553 W/m² | - |
| 1777639791 | 10° C | 68% | 1007.8 hPa | 0 mm | - | 533 W/m² | - |
| 1777639489 | 9.44° C | 70% | 1007.7 hPa | 0 mm | - | 515 W/m² | - |
| 1777639185 | 9.44° C | 72% | 1007.7 hPa | 0 mm | - | 496 W/m² | - |
| 1777638882 | 9.44° C | 72% | 1007.6 hPa | 0 mm | - | 477 W/m² | - |
| 1777638577 | 8.89° C | 71% | 1007.8 hPa | 0 mm | - | 459 W/m² | - |
| 1777638274 | 8.89° C | 72% | 1007.9 hPa | 0 mm | - | 442 W/m² | - |
| 1777637970 | 8.89° C | 75% | 1007.5 hPa | 0 mm | - | 370 W/m² | - |
| 1777637667 | 8.33° C | 74% | 1007.4 hPa | 0 mm | - | 301 W/m² | - |
| 1777637364 | 8.33° C | 76% | 1007.4 hPa | 0 mm | - | 251 W/m² | - |
| 1777637061 | 8.33° C | 77% | 1007.6 hPa | 0 mm | - | 205 W/m² | - |
| 1777636756 | 7.78° C | 77% | 1007.6 hPa | 0 mm | - | 186 W/m² | - |
| 1777636453 | 7.78° C | 78% | 1007.3 hPa | 0 mm | - | 109 W/m² | - |
| 1777636149 | 7.78° C | 78% | 1007.3 hPa | 0 mm | - | 136 W/m² | - |
| 1777635844 | 7.78° C | 80% | 1007.3 hPa | 0 mm | - | 133 W/m² | - |
| 1777635541 | 7.22° C | 80% | 1007.3 hPa | 0 mm | - | 91 W/m² | - |
| 1777635237 | 7.22° C | 80% | 1007.2 hPa | 0 mm | - | 65 W/m² | - |
| 1777634934 | 7.22° C | 81% | 1007.1 hPa | 0 mm | - | 56 W/m² | - |
| 1777634630 | 7.22° C | 82% | 1007.1 hPa | 0 mm | - | 86 W/m² | - |
| 1777634328 | 7.22° C | 83% | 1007.3 hPa | 0 mm | - | 61 W/m² | - |
| 1777634024 | 6.67° C | 84% | 1007.2 hPa | 0 mm | - | 87 W/m² | - |
| 1777633721 | 6.67° C | 84% | 1007.2 hPa | 0 mm | - | 82 W/m² | - |
| 1777633420 | 6.67° C | 85% | 1007.2 hPa | 0 mm | - | 75 W/m² | - |
* Rain latest hour (hover to see other rain measurements)
** Current wind speed in m/s (hover to see current wind gust speed)